Weather History for Soldotna, AK

Change the Weather History Date:

Thursday, January 5, 2012

  Actual Average Record
Temperature  
Mean Temperature 0 °F -  
Max Temperature 8 °F 17 °F 43 °F (1953)
Min Temperature -9 °F 1 °F -45 °F (1975)
Degree Days  
Heating Degree Days 66    
Moisture  
Dew Point -1 °F    
Average Humidity 83    
Maximum Humidity 100    
Minimum Humidity 56    
Precipitation  
Precipitation 0.00 in - - ()
Sea Level Pressure  
Sea Level Pressure 29.43 in    
Wind  
Wind Speed 5 mph (ESE)    
Max Wind Speed 9 mph    
Max Gust Speed 20 mph    
Visibility 8 miles    
Events      
Averages and records for this station are not official NWS values.
T = Trace of Precipitation, MM = Missing Value Source: NWS Daily Summary

Daily Weather History Graph

Daily Weather History Graph

Search for Another Location

Airport:

Trip Planner

Search our weather history database for the weather conditions in past years. The results will help you decide how hot, cold, wet, or windy it might be!

Date:

Astronomy

Jan. 05, 2012 Rise Set
Actual Time 10:08 AM AKST 4:11 PM AKST
Civil Twilight 9:10 AM AKST 5:08 PM AKST
Nautical Twilight 8:14 AM AKST 6:05 PM AKST
Astronomical Twilight 7:22 AM AKST 6:57 PM AKST
Moon 1:18 PM AKST (1/5) 7:05 AM AKST (1/5)
Length of Visible Light 7h 57m
Length of Day
6h 02m
Waxing Gibbous, 88% of the Moon is Illuminated
Jan 5
Waxing Gibbous
Jan 8
Full
Jan 16
Last Quarter
Jan 22
New
Jan 30
First Quarter

Hourly Weather History & Observations

Time (AKST) Temp. Windchill Dew Point Humidity Pressure Visibility Wind Dir Wind Speed Gust Speed Precip Events Conditions
12:16 AM -9.4 °F -20.9 °F -16.6 °F 71% 29.45 in 10.0 mi ENE 4.6 mph - N/A   Clear
12:36 AM -9.4 °F -22.7 °F -16.6 °F 71% 29.45 in 10.0 mi East 5.8 mph - N/A   Clear
12:56 AM -9.4 °F -24.3 °F -16.6 °F 71% 29.44 in 10.0 mi East 6.9 mph - N/A   Clear
1:16 AM -9.4 °F -22.7 °F -13.0 °F 84% 29.43 in 10.0 mi East 5.8 mph - N/A   Clear
1:36 AM -7.6 °F -16.5 °F -11.2 °F 84% 29.44 in 10.0 mi ESE 3.5 mph - N/A   Clear
1:56 AM -5.8 °F -18.4 °F -9.4 °F 84% 29.42 in 10.0 mi East 5.8 mph - N/A   Mostly Cloudy
2:16 AM -5.8 °F -19.9 °F -9.4 °F 84% 29.41 in 10.0 mi East 6.9 mph - N/A   Mostly Cloudy
2:36 AM -4.0 °F -17.8 °F -7.6 °F 85% 29.40 in 10.0 mi East 6.9 mph - N/A   Mostly Cloudy
2:56 AM -2.2 °F -16.8 °F -5.8 °F 85% 29.39 in 10.0 mi East 8.1 mph - N/A   Mostly Cloudy
3:16 AM -0.4 °F -15.7 °F -4.0 °F 85% 29.38 in 10.0 mi East 9.2 mph - N/A   Scattered Clouds
3:36 AM 1.4 °F -12.5 °F -2.2 °F 85% 29.36 in 10.0 mi ENE 8.1 mph - N/A   Mostly Cloudy
3:56 AM 1.4 °F -9.9 °F -0.4 °F 92% 29.36 in 10.0 mi ENE 5.8 mph - N/A   Overcast
4:16 AM 3.2 °F - -0.4 °F 85% 29.39 in 10.0 mi Calm Calm - N/A   Overcast
4:36 AM 3.2 °F -6.2 °F -0.4 °F 85% 29.40 in 8.0 mi North 4.6 mph - N/A   Overcast
5:16 AM 3.2 °F -7.8 °F 1.4 °F 92% 29.40 in 0.8 mi NE 5.8 mph 19.6 mph N/A   Overcast
5:36 AM 3.2 °F -9.1 °F -0.4 °F 85% 29.40 in 3.0 mi NNE 6.9 mph - N/A   Overcast
5:56 AM 5.0 °F -6.9 °F -0.4 °F 78% 29.39 in 4.0 mi NE 6.9 mph - N/A   Mostly Cloudy
6:36 AM 5.0 °F -8.1 °F -2.2 °F 72% 29.40 in 7.0 mi ENE 8.1 mph - N/A   Overcast
6:56 AM 6.8 °F -4.8 °F 3.2 °F 85% 29.40 in 10.0 mi ENE 6.9 mph - N/A   Overcast
7:16 AM 6.8 °F -4.8 °F 3.2 °F 85% 29.40 in 10.0 mi ENE 6.9 mph - N/A   Overcast
7:36 AM 6.8 °F -3.5 °F -2.2 °F 67% 29.41 in 10.0 mi ESE 5.8 mph - N/A   Overcast
7:56 AM 5.0 °F -6.9 °F 5.0 °F 100% 29.40 in 10.0 mi East 6.9 mph - N/A   Overcast
8:16 AM 5.0 °F -8.1 °F -0.4 °F 78% 29.39 in 7.0 mi East 8.1 mph - N/A   Overcast
8:36 AM 3.2 °F -7.8 °F -0.4 °F 85% 29.39 in 7.0 mi East 5.8 mph - N/A   Overcast
8:56 AM 3.2 °F -6.2 °F -0.4 °F 85% 29.39 in 10.0 mi East 4.6 mph - N/A   Mostly Cloudy
9:16 AM 3.2 °F -7.8 °F -0.4 °F 85% 29.39 in 10.0 mi SE 5.8 mph - N/A   Overcast
9:36 AM 3.2 °F -9.1 °F -0.4 °F 85% 29.40 in 10.0 mi SE 6.9 mph - N/A   Overcast
9:56 AM 3.2 °F -6.2 °F -0.4 °F 85% 29.39 in 3.0 mi East 4.6 mph - N/A   Mostly Cloudy
10:16 AM 3.2 °F - -0.4 °F 85% 29.40 in 9.0 mi Calm Calm - N/A   Mostly Cloudy
10:36 AM 1.4 °F -11.3 °F -2.2 °F 85% 29.40 in 10.0 mi SE 6.9 mph - N/A   Mostly Cloudy
10:56 AM 3.2 °F -4.2 °F 1.4 °F 92% 29.41 in 10.0 mi East 3.5 mph - N/A   Overcast
11:16 AM 1.4 °F - -2.2 °F 85% 29.41 in 9.0 mi Calm Calm - N/A   Mostly Cloudy
11:36 AM 3.2 °F -9.1 °F -0.4 °F 85% 29.40 in 10.0 mi ESE 6.9 mph - N/A   Mostly Cloudy
11:56 AM 3.2 °F -10.3 °F 1.4 °F 92% 29.39 in 10.0 mi ESE 8.1 mph - N/A   Mostly Cloudy
12:16 PM 5.0 °F -6.9 °F 1.4 °F 85% 29.40 in 10.0 mi ESE 6.9 mph - N/A   Overcast
12:36 PM 5.0 °F -4.1 °F 1.4 °F 85% 29.41 in 10.0 mi SE 4.6 mph - N/A   Overcast
12:56 PM 6.8 °F -0.1 °F 1.4 °F 79% 29.43 in 10.0 mi South 3.5 mph - N/A   Overcast
1:16 PM 6.8 °F - 1.4 °F 79% 29.43 in 3.0 mi Calm Calm - N/A   Overcast
1:36 PM 6.8 °F - 3.2 °F 85% 29.42 in 0.8 mi Calm Calm - N/A   Overcast
1:56 PM 6.8 °F - 3.2 °F 85% 29.44 in 0.8 mi Calm Calm - N/A   Overcast
2:16 PM 6.8 °F -2.0 °F 5.0 °F 92% 29.43 in 1.2 mi West 4.6 mph - N/A   Overcast
2:36 PM 8.6 °F 2.0 °F 6.8 °F 92% 29.44 in 7.0 mi SSW 3.5 mph - N/A   Overcast
2:56 PM 8.6 °F -1.3 °F 3.2 °F 79% 29.45 in 9.0 mi South 5.8 mph - N/A   Overcast
3:16 PM 8.6 °F -2.6 °F 1.4 °F 73% 29.46 in 9.0 mi South 6.9 mph - N/A   Overcast
3:36 PM 8.6 °F -2.6 °F 3.2 °F 79% 29.47 in 8.0 mi South 6.9 mph - N/A   Overcast
3:56 PM 8.6 °F -2.6 °F 6.8 °F 92% 29.48 in 7.0 mi South 6.9 mph - N/A   Overcast
4:16 PM 8.6 °F -2.6 °F 6.8 °F 92% 29.49 in 5.0 mi South 6.9 mph - N/A   Overcast
4:36 PM 8.6 °F - 3.2 °F 79% 29.50 in 8.0 mi Calm Calm - N/A   Overcast
4:56 PM 8.6 °F 2.0 °F 1.4 °F 73% 29.50 in 9.0 mi South 3.5 mph - N/A   Overcast
5:16 PM 8.6 °F 2.0 °F 3.2 °F 79% 29.51 in 7.0 mi ESE 3.5 mph - N/A   Overcast
5:36 PM 8.6 °F - 3.2 °F 79% 29.51 in 10.0 mi Calm Calm - N/A   Overcast
5:56 PM 8.6 °F 2.0 °F - N/A% 29.51 in 10.0 mi ENE 3.5 mph - N/A   Overcast
6:16 PM 6.8 °F -4.8 °F -5.8 °F 56% 29.51 in 10.0 mi East 6.9 mph - N/A   Overcast
6:36 PM 6.8 °F -0.1 °F 1.4 °F 79% 29.51 in 10.0 mi East 3.5 mph - N/A   Overcast
6:56 PM 6.8 °F -3.5 °F 6.8 °F 100% 29.51 in 10.0 mi East 5.8 mph - N/A   Overcast
7:16 PM 6.8 °F -2.0 °F 3.2 °F 85% 29.51 in 10.0 mi East 4.6 mph - N/A   Overcast
7:36 PM 6.8 °F -2.0 °F 5.0 °F 92% 29.50 in 10.0 mi SE 4.6 mph - N/A   Overcast
7:56 PM 6.8 °F -2.0 °F 3.2 °F 85% 29.50 in 10.0 mi ESE 4.6 mph - N/A   Scattered Clouds
8:16 PM 6.8 °F -3.5 °F 3.2 °F 85% 29.50 in 10.0 mi SE 5.8 mph - N/A   Scattered Clouds
8:36 PM 5.0 °F -6.9 °F 1.4 °F 85% 29.50 in 10.0 mi ESE 6.9 mph - N/A   Partly Cloudy
8:56 PM 12.2 °F 0.7 °F 10.4 °F 92% 29.50 in 10.0 mi SW 8.1 mph - N/A   Clear
9:16 PM 14.0 °F 0.5 °F 6.8 °F 73% 29.50 in 10.0 mi SSW 11.5 mph - N/A   Partly Cloudy
9:36 PM 12.2 °F -0.2 °F 6.8 °F 79% 29.51 in 10.0 mi SSW 9.2 mph - N/A   Clear
9:56 PM 12.2 °F -0.2 °F 6.8 °F 79% 29.51 in 10.0 mi SSW 9.2 mph 16.1 mph N/A   Clear
10:16 PM 12.2 °F 1.7 °F 3.2 °F 67% 29.51 in 10.0 mi SW 6.9 mph - N/A   Clear
10:36 PM 12.2 °F 1.7 °F 3.2 °F 67% 29.51 in 10.0 mi South 6.9 mph - N/A   Clear
10:56 PM 12.2 °F -0.2 °F 1.4 °F 62% 29.51 in 10.0 mi South 9.2 mph - N/A   Clear
11:16 PM 10.4 °F -1.5 °F 1.4 °F 67% 29.51 in 10.0 mi South 8.1 mph - N/A   Clear
11:36 PM 10.4 °F -0.4 °F 1.4 °F 67% 29.51 in 10.0 mi South 6.9 mph - N/A   Clear
11:56 PM 8.6 °F -5.5 °F 1.4 °F 73% 29.51 in 10.0 mi SSW 10.4 mph - N/A   Clear